Время (UTC), дата Ветер
(°,м/с) 
Видим.   Явления Облачность Т
(°С)
Тd
(°С)
f(%) Тe
(°С)
Pmin
(гПа)
dP
(гПа)
Po
(мм)
O2
(г/м3)
Тmin Tmax R s Состояние
почвы
00 20.05.15 170 (Ю) 20000 м    ясно 
+7.8 +2.1 67 +8  1020.8  725  284           
03 20.05.15 120 (ЮВ) 20000 м    ясно 
+13.1 +5.1 58 +14  1020.1  0.4  725  278  +7        сухая 
06 20.05.15 120 (ЮВ) 20000 м    ясно 
+17.1 +1.6 35 +18  1019.8  0.4  726  275           
09 20.05.15 070 (В) 3-10{10}  20000 м    ясно 
+19.8 +0 26 +21  1018.5  0.4  725  272           
12 20.05.15 030 (СВ) 3{10}  20000 м    ясно 
+21 +0.6 26 +21  1017.7  -0.6  725  271           
15 20.05.15 070 (В) 20000 м    ясно 
+19.7 +3.7 35 +20  1017.6  -0.2  724  272    +21.4       
18 20.05.15 080 (В) 20000 м    ясно 
+13 +2.8 50 +12  1019.4  0.5  725  278           
21 20.05.15 090 (В) 20000 м    ясно 
+10.5 +2.7 58 +10  1019.3  -0.5  724  281           
00 21.05.15 090 (В) 20000 м    ясно 
+8.5 +2.4 65 +7  1019.5  -0.2  724  283           
03 21.05.15 080 (В) 20000 м    1/0 верхняя 
[Ci fib]
+11.4 +2.4 54 +10  1018.7  -0.2  724  280  +7.5        сухая 
06 21.05.15 090 (В) 8-11{12}  20000 м    1/0 верхняя 
[Ci fib]
+18.6 +3.2 36 +18  1017.5  0.2  724  273           
09 21.05.15 100 (В) 9-12{12}  20000 м    4/0 верхняя 
[Ci fib]
+21.9 +5.4 34 +22  1016.5  -0.4  724  269           
12 21.05.15 090 (В) 9-13{13}  20000 м    4/0 верхняя 
[Ci fib]
+23.1 +5.3 32 +23  1015.6  -0.6  723  268           
15 21.05.15 100 (В) 6{13}  20000 м    ясно 
+21.5 +5.9 36 +22  1015  -0.9  723  269    +23.3       
18 21.05.15 080 (В) 7-10{10}  20000 м    3/0 верхняя 
[Ci fib]
+16.4 +4.3 45 +16  1016.6  0.6  723  274           
21 21.05.15 080 (В) 6{10}  20000 м    4/0 верхняя 
[Ci fib]
+13.3 +4.6 56 +12  1016.6  -0.5  723  277           
00 22.05.15 110 (В) 20000 м    ясно 
+11.9 +6.4 69 +11  1017.1  0.2  723  278           
03 22.05.15 090 (В) 20000 м    ясно 
+12.6 +5.1 60 +12  1017.1  -0.1  723  278  +10.8        сухая 
06 22.05.15 100 (В) 10-15{15}  20000 м    ясно 
+18.4 +3.5 37 +18  1017.1  724  273           
09 22.05.15 110 (В) 12-16{17}  20000 м    ясно 
+21.8 +3 29 +22  1016.5  724  270           
12 22.05.15 110 (В) 12-18{18}  20000 м    ясно 
+23 +1.2 24 +23  1015.4  -0.8  723  268           
15 22.05.15 110 (В) 9-14{18}  20000 м    3/0 верхняя 
[Ci fib]
+21.4 +2.2 28 +21  1015.1  -0.6  723  270    +23.3       
18 22.05.15 100 (В) 7-10{14}  20000 м    ясно 
+16.5 +3.3 41 +16  1017.1  724  274           
21 22.05.15 120 (ЮВ) 7{10}  20000 м    ясно 
+12.9 +2.3 49 +12  1017.1  -0.6  723  278           
00 23.05.15 110 (В) 7-10{11}  20000 м    ясно 
+12.3 +1.9 49 +11  1016.4  -0.8  722  278           
03 23.05.15 110 (В) 8-10{12}  20000 м    ясно 
+12.9 +2.3 49 +11  1016.4  0.1  723  278  +11.5        сухая 
06 23.05.15 110 (В) 11-15{15}  20000 м    ясно 
+17.7 +3.5 39 +17  1015.6  723  273           
09 23.05.15 100 (В) 12-17{18}  20000 м    3/0 верхняя 
[Ci fib]
+21.8 +4.5 32 +22  1014.2  -0.6  722  269           
12 23.05.15 110 (В) 11-14{17}  20000 м    1/0 верхняя 
[Ci fib]
+24 +4 27 +24  1012.6  -1.1  721  267           
15 23.05.15 110 (В) 9-11{15}  20000 м    3/0 верхняя 
[Ci fib]
+22.3 +3.8 30 +22  1012.4  -0.5  721  268    +24.1       
18 23.05.15 090 (В) 7{12}  20000 м    3/0 средняя 
[Ac trans]
+16.7 +5.5 48 +16  1014.1  0.6  721  273           
21 23.05.15 100 (В) 7-10{12}  20000 м    ясно 
+14.6 +4.4 50 +14  1013.7  -0.8  721  275           
00 24.05.15 110 (В) 5{11}  20000 м    ясно 
+11.5 +6.5 71 +10  1013.3  -0.9  720  277           
03 24.05.15 130 (ЮВ) 20000 м    ясно 
+11.3 +7.6 78 +11  1013.1  0.1  720  277  +9.5        сухая 
06 24.05.15 110 (В) 20000 м    ясно 
+16.5 +9.5 63 +18  1012.2  0.1  720  272           
09 24.05.15 110 (В) 20000 м    3/0 верхняя 
[Ci sp]
+20.7 +10.8 53 +24  1011.7  0.2  720  268           
12 24.05.15 120 (ЮВ) 20000 м    10/0 верхняя 
[Cs]
+21.8 +11 50 +25  1011.2  -0.3  720  267           
15 24.05.15 120 (ЮВ) 20000 м    8/0 верхняя 
[Cs]
+20.7 +12.4 59 +26  1010.7  -0.6  720  267    +22.7       
18 24.05.15 190 (Ю) 20000 м    1/0 верхняя 
[Ci fib]
+17.1 +11.3 69 +22  1011.5  0.1  720  271           
21 24.05.15 250 (З) 20000 м    3/0 верхняя 
[Ci fib]
+15.1 +10 72 +17  1011.3  -0.6  719  273           
00 25.05.15 250 (З) 20000 м    ясно 
+14.1 +9.9 76 +16  1010.7  -0.7  719  274           
03 25.05.15 250 (З) 20000 м    ясно 
+17 +12.4 74 +23  1010.4  0.2  719  270  +13.5        сухая 
06 25.05.15 310 (СЗ) 20000 м    3/1 600 м средняя 
[Cu hum|Ac trans]
+22.4 +11.7 51 +27  1010  0.5  719  266           
09 25.05.15 300 (СЗ) 20000 м    5/5 600 м 
[Cu hum]
+24.9 +11.8 44 +29  1009.5  719  263           
12 25.05.15 160 (Ю) 20000 м  в посл. час гроза  8/8 1000 м кучево-дожд. 
[Cb calv]
+25.5 +12.7 45 +31  1008.5  -0.8  719  262           
15 25.05.15 120 (ЮВ) 20000 м  {гроза}  9/8 600 м кучево-дожд., средняя 
[Cb calv|Ac trans]
+21.3 +14.1 63 +30  1009.4  0.2  719  266    +26.1       
18 25.05.15 110 (В) 20000 м  {ливн. осадки}  8/0 средняя 
[Sc diur, vesp|Ac trans]
+17.8 +14.3 80 +27  1010.1  0.1  719  269           
21 25.05.15 080 (В) 20000 м    4/0 средняя 
[Ac trans]
+15.3 +12.6 84 +22  1009.7  -0.9  718  271           
00 26.05.15 100 (В) 20000 м    3/0 средняя 
[Ac trans]
+14.4 +12.8 90 +22  1009  -0.8  718  272           
06 26.05.15 160 (Ю) 20000 м    ясно 
+22.7 +15 62 +33  1008.2  0.3  718  264           
09 26.05.15 110 (В) 20000 м    4/1 600 м верхняя 
[Cu hum|Ci fib]
+25.5 +15.8 55 +37  1007.3  -0.3  718  261           
12 26.05.15 080 (В) 20000 м  гроза без осадков  8/5 600 м кучево-дожд., верхняя 
[Cb calv|Ci fib]
+26.6 +14.6 48 +36  1006.8  -0.4  718  260           
15 26.05.15 100 (В) 20000 м  {гроза}  6/3 600 м кучево-дожд., средняя 
[Cb calv|Ac trans]
+22.8 +13.4 55 +30  1007.4  718  264    +27.7       
18 26.05.15 270 (З) 7-11{13}  20000 м  {гроза}  8/3 600 м средняя 
[Sc diur, vesp|Ac trans]
+17.8 +12.6 72 +24  1010.4  1.9  719  269           
21 26.05.15 290 (З) 4{11}  20000 м    6/0 средняя 
[Ac trans]
+17.2 +10.9 66 +20  1009.9  -0.5  719  270           
00 27.05.15 270 (З) 20000 м    5/0 
+15.6 +10 69 +18  1010.1  0.1  719  272           
03 27.05.15 240 (ЮЗ) 20000 м    3/0 верхняя 
[Ci fib]
+16.1 +11.6 75 +21  1010.5  0.5  719  271  +14        сухая 
06 27.05.15 150 (ЮВ) 20000 м    1/0 верхняя 
[Ci fib]
+23.5 +14.1 56 +32  1009  0.1  719  264           
09 27.05.15 340 (С) 20000 м    6/1 600 м верхняя 
[Cu hum|Ci]
+25.6 +10 37 +28  1008.2  -0.5  718  263           
12 27.05.15 350 (С) 20000 м    3/3 1000 м 
[Cu hum]
+26.8 +9.8 34 +29  1007.1  -0.9  718  262           
15 27.05.15 040 (СВ) 20000 м    8/1 1000 м верхняя 
[Sc|Ci]
+25.9 +9.9 36 +28  1006.4  -0.8  717  262    +27.3       
18 27.05.15 330 (СЗ) 20000 м    8/0 средняя 
[Ac trans]
+22.3 +10.9 48 +26  1006.8  -0.2  717  265           
21 27.05.15 030 (СВ) 20000 м    10/0 средняя 
[As op]
+20 +10.9 56 +23  1005.1  -2  716  267           
00 28.05.15 110 (В) 20000 м    3/0 верхняя 
[Ci fib]
+18.1 +11 63 +23  1004.4  -1  715  268           
03 28.05.15 110 (В) 20000 м    5/0 верхняя 
[Ci fib]
+18.4 +12.6 69 +25  1003.8  -0.5  714  267  +16.2        сухая 
06 28.05.15 120 (ЮВ) 20000 м    6/0 верхняя 
[Ci fib]
+23.9 +14 54 +32  1002.2  -0.5  714  262           
09 28.05.15 110 (В) 6-11{11}  20000 м    4/0 верхняя 
[Ci fib]
+27.6 +11.7 37 +32  1001.1  -0.5  714  259           
12 28.05.15 110 (В) 6{11}  20000 м    4/1 1000 м средняя, верхняя 
[Cu med, cong|Ac trans|Ci sp]
+29 +11.9 35 +34  999.5  -1.2  713  257           
15 28.05.15 270 (З) 5{16}  20000 м  слаб. ливневой дождь{гроза}  10/8 1000 м кучево-дожд., средняя 
[Cb cap|Ac und]
+18.4 +11.9 66 +24  1002.6  1.2  714  267    +29  0.3     
18 28.05.15 120 (ЮВ) 4{12}  20000 м  слаб. ливневой дождь{гроза}  8/4 1000 м кучево-дожд., средняя 
[Cb cap|Ac As]
+17.3 +13 76 +25  1004.8  1.9  715  268           
21 28.05.15 310 (СЗ) 20000 м    8/3 1000 м кучево-дожд., средняя 
[Cb calv|Ac trans]
+16.7 +12.7 77 +23  1004.7  -0.3  715  269           
00 29.05.15 340 (С) 20000 м    10/3 1000 м кучево-дожд., средняя 
[Cb calv|Ac und]
+15.8 +12.6 81 +22  1005  0.2  715  270           
03 29.05.15 080 (В) 20000 м    9/3 1000 м кучево-дожд., средняя 
[Cb cap|Ac cast]
+16 +12.5 80 +23  1006.2  1.2  716  270  +14.6      влажная 
06 29.05.15 080 (В) 20000 м    8/5 300 м кучево-дожд., средняя 
[Cb calv|Ac trans]
+17.2 +13.2 77 +24  1007.3  1.2  717  269           
09 29.05.15 040 (СВ) 20000 м    8/4 600 м кучево-дожд., средняя 
[Cb calv|Ac trans]
+20.1 +13.6 66 +28  1007  0.2  717  266           
12 29.05.15 100 (В) 20000 м    8/8 600 м 
[Cu med, cong]
+22.9 +13.6 56 +30  1006.7  0.2  717  264           
15 29.05.15 090 (В) 20000 м  зарница  8/5 600 м кучево-дожд., средняя 
[Cb calv|Ac trans]
+20.2 +13.9 67 +28  1007.5  0.3  717  266    +23.3       
18 29.05.15 290 (З) 20000 м  слаб. ливневой дождь{гроза}  9/6 600 м кучево-дожд., средняя 
[Cb cap|Ac trans]
+16.4 +15.1 92 +27  1008.8  0.6  718  270           
21 29.05.15 290 (З) 20000 м  {ливн. осадки}  8/4 1000 м средняя 
[Sc diur, vesp|Ac trans]
+16.3 +12 76 +22  1009  718  271           
00 30.05.15 310 (СЗ) 20000 м  {ливн. осадки}  3/0 средняя 
[Ac trans]
+15.3 +12.7 84 +21  1009.7  0.5  718  271           
03 30.05.15 350 (С) 20000 м    4/0 средняя 
[Ac trans]
+15.6 +13.3 86 +23  1010.7  719  271  +14.3      влажная 
06 30.05.15 190 (Ю) 20000 м    8/3 600 м средняя 
[Sc|Ac trans]
+19.3 +15.2 77 +30  1011  720  268           
09 30.05.15 350 (С) 20000 м    8/8 600 м 
[Cu med, cong]
+23.5 +13.5 53 +31  1010.5  0.2  720  264           
12 30.05.15 040 (СВ) 20000 м    8/8 600 м кучево-дожд. 
[Cb calv]
+24.8 +13 48 +31  1010  -0.3  720  263           
15 30.05.15 300 (СЗ) 20000 м  гроза, ливневой дождь  9/6 600 м кучево-дожд., средняя 
[Cb cap|Ac trans]
+21.1 +15.9 72 +33  1010.9  0.3  720  266    +25.3       
18 30.05.15 320 (СЗ) 7-11{13}  20000 м  гроза без осадков  8/6 600 м кучево-дожд., средняя 
[Cb calv|Ac trans]
+15.8 +10.9 73 +18  1013.5  1.4  721  273           
21 30.05.15 190 (Ю) 5{11}  20000 м  {гроза, ливн. осадки}  6/6 600 м кучево-дожд. 
[Cb calv]
+14.6 +11.6 82 +18  1014.1  0.4  721  274           
00 31.05.15 200 (Ю) 20000 м  {гроза, ливн. осадки}  6/3 600 м кучево-дожд., средняя 
[Cb calv|Ac trans]
+13.6 +12.1 91 +20  1013.3  -1  721  274           
03 31.05.15 300 (СЗ) 20000 м    8/3 600 м кучево-дожд., средняя 
[Cb calv|Ac trans]
+14.4 +12.5 88 +21  1013.7  0.6  721  273  +12.9        сухая 
06 31.05.15 120 (ЮВ) 20000 м    8/3 1000 м средняя, верхняя 
[Sc diur, vesp|Ac trans|Ci fib]
+19.3 +12.2 63 +26  1012.9  0.1  721  269           
09 31.05.15 290 (З) 20000 м    10/4 1000 м кучево-дожд., средняя 
[Cb calv|Ac und]
+19.7 +13.4 67 +27  1014  1.2  722  269           
12 31.05.15 330 (СЗ) 20000 м    8/3 1000 м кучево-дожд., средняя, верхняя 
[Cb calv|Ac trans|Ci fib]
+21.6 +12.7 57 +27  1014.5  1.2  722  267           
15 31.05.15 260 (З) 20000 м  гроза без осадков{ливн. осадки}  8/3 600 м кучево-дожд., средняя 
[Cb calv|Ac trans]
+18.8 +13 69 +25  1015.9  0.9  723  270    +22  0.3     
18 31.05.15 270 (З) 4{10}  20000 м  {гроза}  3/0 средняя 
[Ac trans]
+14.5 +11.4 82 +18  1018.2  1.4  724  275           
21 31.05.15 250 (З) 20000 м    3/0 средняя 
[Ac trans]
+13.2 +11.5 89 +17  1018.7  0.2  724  276           
00 01.06.15 280 (З) 20000 м    3/0 средняя 
[Ac trans]
+13.5 +11.4 87 +17  1018.7  724  276           
03 01.06.15 290 (З) 6{10}  20000 м    3/0 средняя 
[Ac trans]
+14.5 +11.8 84 +18  1019.4  0.9  725  275  +12        сухая 
06 01.06.15 270 (З) 20000 м    3/1 300 м верхняя 
[St|Ci fib]
+18.8 +12.8 68 +25  1019  0.4  725  271           
09 01.06.15 250 (З) 20000 м    8/8 600 м 
[Cu hum]
+21.2 +11.4 54 +25  1018.4  -0.2  725  269           
12 01.06.15 270 (З) 20000 м    6/6 600 м 
[Cu hum]
+23.1 +10.9 46 +26  1018  0.1  725  267           
15 01.06.15 260 (З) 20000 м    6/3 600 м верхняя 
[Cu hum|Ci fib]
+21.9 +10.6 49 +25  1018.3  -0.1  725  269    +23.5       
18 01.06.15 220 (ЮЗ) 20000 м    8/0 средняя 
[Ac trans]
+18.5 +11.8 65 +23  1019.3  0.4  725  271           
21 01.06.15 220 (ЮЗ) 20000 м    3/0 средняя 
[Ac trans]
+16.2 +12.2 77 +22  1020.1  0.3  726  274           
00 02.06.15 320 (СЗ) 20000 м    3/0 средняя 
[Ac und]
+15.6 +12.4 81 +21  1019.6  -0.5  725  274           
03 02.06.15 010 (С) 20000 м    ясно 
+17.3 +12.8 75 +25  1020.1  0.7  726  272  +13.6        сухая 
06 02.06.15 040 (СВ) 20000 м    3/3 600 м 
[Cu hum]
+21.1 +13.9 63 +29  1019.6  0.2  726  269           
09 02.06.15 100 (В) 20000 м    6/6 600 м 
[Cu hum]
+24.3 +13.5 51 +31  1018.7  -0.3  726  266           
12 02.06.15 110 (В) 20000 м    6/6 1000 м 
[Cu med, cong]
+25.4 +13.1 46 +32  1017.5  -1  725  265           
15 02.06.15 130 (ЮВ) 20000 м    8/5 1000 м кучево-дожд., средняя 
[Cb calv|Ac trans]
+25.1 +13.7 49 +32  1017.3  -0.2  725  265    +26.9       
18 02.06.15 340 (С) 20000 м  в посл. час гроза{ливн. осадки}  6/4 1000 м кучево-дожд., верхняя 
[Cb calv|Ci fib]
+20.8 +15.3 71 +31  1019  0.8  726  268           
21 02.06.15 360 (С) 20000 м    6/0 средняя 
[Ac trans]
+19 +12.9 68 +26  1018.7  -0.6  725  271           
00 03.06.15 020 (С) 20000 м    8/0 верхняя 
[Ci fib]
+17.9 +13.1 73 +25  1018.3  -0.5  725  271           
03 03.06.15 020 (С) 20000 м    8/3 1000 м средняя 
[Sc|Ac trans]
+18.7 +13.6 72 +26  1017.9  -0.2  725  270  +17.4        сухая 
06 03.06.15 060 (СВ) 20000 м    9/3 1000 м средняя 
[Sc|Ac trans]
+20.1 +15.3 74 +30  1018  0.4  725  269           
Время (UTC), дата Ветер
(°,м/с) 
Видим.   Явления Облачность Т
(°С)
Тd
(°С)
f(%) Тe
(°С)
Pmin
(гПа)
dP
(гПа)
Po
(мм)
O2
(г/м3)
Тmin Tmax R s Состояние
почвы